Regional Weather Roundup
Issued by NWS

Home | Current Version | Previous Version | Text Only | Print | Product List | Glossary On
Versions: 1 2 3 4 5 6 7 8 9 10 11 12 13 14 15 16 17 18 19 20 21 22 23 24 25 26 27 28 29 30 31 32 33 34 35 36 37 38 39 40 41 42 43 44 45 46 47 48 49 50
000
ASUS43 KDTX 262310
RWRMI
MICHIGAN HOURLY REGIONAL WEATHER ROUNDUP
NATIONAL WEATHER SERVICE DETROIT/PONTIAC MI
600 PM EST WED NOV 26 2014

NOTE: "FAIR" INDICATES FEW OR NO CLOUDS BELOW 12,000 FEET WITH NO
SIGNIFICANT WEATHER AND/OR OBSTRUCTION TO VISIBILITY.

MIZ047>049-052>055-059>063-066>070-074>076-081>083-270000-
SOUTHEAST LOWER MICHIGAN

CITY           SKY/WX    TMP DP  RH WIND       PRES   REMARKS
ADRIAN         CLOUDY    31  24  75 N5        30.09F
ALMA           CLOUDY    29  24  82 N6        30.13S
ANN ARBOR      CLOUDY    32  24  72 N6        30.09F
BAD AXE        CLOUDY    29  27  90 NW6       30.13S
DETROIT CITY   CLOUDY    35  24  64 N8        30.10S
DETROIT        FLURRIES  33  24  69 NW6       30.10F
FLINT          CLOUDY    32  23  69 N6        30.11F
GROSSE ILE     FLURRIES  34  27  75 N3        30.08F
HILLSDALE      CLOUDY    29  24  82 CALM      30.06F
HOWELL         CLOUDY    30  22  73 N3        30.08F

CITY           SKY/WX    TMP DP  RH WIND       PRES   REMARKS
JACKSON        CLOUDY    29  23  78 N5        30.08F
LAMBERTVILLE   CLOUDY    32  27  80 N5        30.09F
LANSING        FLURRIES  29  21  72 N8        30.11F
LAPEER         NOT AVBL
MASON          CLOUDY    30  23  76 CALM      30.10S
MONROE         CLOUDY    32  27  80 CALM      30.08S
MT. CLEMENS    CLOUDY    34  25  69 N7        30.08S
PONTIAC        FLURRIES  31  22  69 N5        30.08S
PORT HOPE        N/A     31  28  89 W5        30.11S
PORT HURON     CLOUDY    32  25  74 NW5       30.10S
TRI CITIES     CLOUDY    31  22  69 N9        30.14F
YPSILANTI      CLOUDY    35  25  66 N5        30.10F
$$
MIZ043>046-050>051-056>058-064>065-071>073-077>080-270000-
SOUTHWEST LOWER MICHIGAN

CITY           SKY/WX    TMP DP  RH WIND       PRES   REMARKS
BATTLE CREEK   CLOUDY    29  22  75 N3        30.10S
BENTON HARBOR  CLOUDY    27  20  75 CALM      30.12F
BIG RAPIDS     CLOUDY    29  24  84 CALM      30.11S
COLDWATER      CLOUDY    30  24  79 N5        30.08F
HOLLAND        CLOUDY    30  21  69 E3        30.13S
GRAND RAPIDS   CLOUDY    29  20  69 NE7       30.12S
KALAMAZOO      CLOUDY    28  20  71 CALM      30.11S
MARSHALL       CLOUDY    27  24  87 CALM      30.09S
MUSKEGON       CLOUDY    31  22  69 E6        30.14S
$$
MIZ016>042-270000-
NORTHERN LOWER MICHIGAN

CITY           SKY/WX    TMP DP  RH WIND       PRES   REMARKS
ALPENA         FLURRIES  27  23  85 N5        30.15F
BEAVER ISLAND  CLOUDY    29  26  86 NW3       30.15F
BELLAIRE       CLOUDY    28  25  89 CALM      30.16S
CADILLAC       FLURRIES  25  22  89 CALM      30.10S
CHARLEVOIX     CLOUDY    27  24  88 SE3       30.18S
FRANKFORT      CLOUDY    29  27  91 CALM      30.15S
GAYLORD        CLOUDY    24  19  81 CALM      30.11F
GRAYLING       CLOUDY    26  24  92 CALM      30.13S
HARBOR SPRINGS CLOUDY    27  23  83 CALM      30.16S
HOUGHTON LAKE  CLOUDY    25  20  81 CALM      30.12F
MANISTEE       CLOUDY    28  25  86 E3        30.14F
OSCODA         LGT SNOW  28  26  92 NW7       30.14F
PELLSTON       CLOUDY    27  23  85 CALM      30.16S
TRAVERSE CITY  CLOUDY    29  23  78 CALM      30.14F
$$
MIZ007>008-015-270000-
EASTERN UPPER MICHIGAN

CITY           SKY/WX    TMP DP  RH WIND       PRES   REMARKS
KINROSS        CLOUDY    25  25 100 E7        30.15S
MACKINAC ISLAN CLOUDY    28  22  76 S6        30.15S
NEWBERRY       CLOUDY    23  22  93 CALM      30.14S
S. S. MARIE    FLURRIES  26  22  84 E3        30.14F
$$
MIZ004>006-011>014-085-270000-
CENTRAL UPPER MICHIGAN

CITY           SKY/WX    TMP DP  RH WIND       PRES   REMARKS
MANISTIQUE     PTCLDY    19  19  98 CALM      30.15S
ESCANABA       MOCLDY    21  16  79 CALM      30.16S
MENOMINEE      CLOUDY    21  16  79 W5        30.17S
SAWYER-GWINN   CLOUDY    23  18  80 W5        30.12R
$$
MIZ001>003-009>011-084-270000-
WESTERN UPPER MICHIGAN

CITY           SKY/WX    TMP DP  RH WIND       PRES   REMARKS
IRON MOUNTAIN  CLOUDY    22  17  81 CALM      30.13R
HOUGHTON       LGT SNOW  20  15  81 N14       30.16R
COPPER HARBOR    N/A     25  21  85 NE17      30.18R
IRONWOOD       CLOUDY    21  19  93 NW10      30.17R
$$

ABBREVIATIONS USED IN REMARKS
   TC - TEMPERATURE IN CELSIUS
  WCI - WIND CHILL INDEX
   HX - HEAT INDEX
  VSB - VISIBILITY




USA.gov is the U.S. government's official web portal to all federal, state and local government web resources and services.